FW3182 Weather Reports


Display with metric or nautical units.
time (UTC)temp
F
wind
direction
speed
MPH
gust
MPH
rain 1hr
in
rain 24hr
in
rain mn
in
humidity
%
barometer
mb
20260905140703 85 205 0.0 1.0 0.00 0.00 0.00 69 1012.7
20260905140204 84 205 0.0 2.0 0.00 0.00 0.00 71 1012.7
20260905135703 83 198 0.0 2.0 0.00 0.00 0.00 72 1012.7
20260905135204 83 195 0.0 1.0 0.00 0.00 0.00 72 1012.6
20260905134703 82 201 1.0 3.0 0.00 0.00 0.00 72 1012.6
20260905134204 82 199 1.0 2.0 0.00 0.00 0.00 72 1012.7
20260905133203 81 209 0.0 0.0 0.00 0.00 0.00 75 1012.6
20260905132703 81 210 0.0 0.0 0.00 0.00 0.00 76 1012.7
20260905131704 80 210 0.0 0.0 0.00 0.00 0.00 78 1012.5
20260905131204 78 98 0.0 0.0 0.00 0.00 0.00 81 1012.5
20260905130204 76 98 0.0 0.0 0.00 0.00 0.00 83 1012.6
20260905125704 75 98 0.0 0.0 0.00 0.00 0.00 85 1012.5
20260905124703 74 98 0.0 0.0 0.00 0.00 0.00 86 1012.5
20260905124203 73 98 0.0 0.0 0.00 0.00 0.00 86 1012.4
20260905123704 73 98 0.0 0.0 0.00 0.00 0.00 86 1012.4
20260905122704 73 98 0.0 0.0 0.00 0.00 0.00 87 1012.3
20260905122203 73 97 0.0 0.0 0.00 0.00 0.00 87 1012.3
20260905121703 72 98 0.0 0.0 0.00 0.00 0.00 86 1012.3
20260905120704 72 98 0.0 0.0 0.00 0.00 0.00 86 1012.1
20260905120204 72 98 0.0 0.0 0.00 0.00 0.00 86 1012.0
20260905115704 72 97 0.0 0.0 0.00 0.00 0.00 87 1011.9
20260905115203 72 98 0.0 0.0 0.00 0.00 0.00 87 1012.0
20260905114704 72 98 0.0 0.0 0.00 0.00 0.00 86 1012.0
20260905114204 72 98 0.0 0.0 0.00 0.00 0.00 87 1012.0
20260905113703 72 97 0.0 0.0 0.00 0.00 0.00 87 1012.0
20260905113203 72 97 0.0 0.0 0.00 0.00 0.00 87 1012.0
20260905112704 72 97 0.0 0.0 0.00 0.00 0.00 87 1012.0
20260905112204 72 97 0.0 0.0 0.00 0.00 0.00 87 1011.9
20260905111704 72 97 0.0 0.0 0.00 0.00 0.00 86 1011.9
20260905111203 73 97 0.0 0.0 0.00 0.00 0.00 86 1011.8
20260905110704 73 98 0.0 0.0 0.00 0.00 0.00 85 1011.8
20260905110204 73 97 0.0 0.0 0.00 0.00 0.00 85 1011.7
20260905105704 73 98 0.0 0.0 0.00 0.00 0.00 85 1011.7
20260905104704 74 97 0.0 0.0 0.00 0.00 0.00 84 1011.7
20260905104204 74 97 0.0 0.0 0.00 0.00 0.00 84 1011.7
20260905103703 74 98 0.0 0.0 0.00 0.00 0.00 84 1011.7
20260905103204 74 97 0.0 0.0 0.00 0.00 0.00 83 1011.8
20260905102704 74 98 0.0 0.0 0.00 0.00 0.00 83 1011.8
20260905102204 74 97 0.0 0.0 0.00 0.00 0.00 82 1011.8
20260905100704 75 98 0.0 0.0 0.00 0.00 0.00 81 1011.5
20260905100203 75 97 0.0 0.0 0.00 0.00 0.00 80 1011.5
20260905095704 76 97 0.0 0.0 0.00 0.00 0.00 80 1011.6
20260905095204 75 97 0.0 0.0 0.00 0.00 0.00 80 1011.6
20260905094703 75 98 0.0 0.0 0.00 0.00 0.00 81 1011.5
20260905093204 76 97 0.0 0.0 0.00 0.00 0.00 80 1011.6
20260905092703 76 97 0.0 0.0 0.00 0.00 0.00 79 1011.6
20260905092204 76 97 0.0 0.0 0.00 0.00 0.00 79 1011.5
20260905091703 76 97 0.0 0.0 0.00 0.00 0.00 78 1011.5
20260905091203 77 97 0.0 0.0 0.00 0.00 0.00 78 1011.4
20260905090204 77 98 0.0 0.0 0.00 0.00 0.00 77 1011.4
20260905085703 77 97 0.0 0.0 0.00 0.00 0.00 77 1011.4
20260905085203 77 98 0.0 0.0 0.00 0.00 0.00 77 1011.3
20260905084704 77 98 0.0 0.0 0.00 0.00 0.00 76 1011.3
20260905084204 77 97 0.0 0.0 0.00 0.00 0.00 76 1011.3
20260905083703 77 98 0.0 0.0 0.00 0.00 0.00 76 1011.3
20260905083203 77 97 0.0 0.0 0.00 0.00 0.00 76 1011.2
20260905082704 77 98 0.0 0.0 0.00 0.00 0.00 76 1011.3
20260905082204 77 98 0.0 0.0 0.00 0.00 0.00 76 1011.3
20260905080704 77 97 0.0 0.0 0.00 0.00 0.00 76 1011.3
20260905075704 78 97 0.0 0.0 0.00 0.00 0.00 75 1011.3
20260905075203 78 97 0.0 0.0 0.00 0.00 0.00 75 1011.3
20260905074704 78 97 0.0 0.0 0.00 0.00 0.00 74 1011.4
20260905074203 79 97 0.0 0.0 0.00 0.00 0.00 73 1011.4
20260905073704 79 98 0.0 0.0 0.00 0.00 0.00 72 1011.4
20260905073204 79 98 0.0 0.0 0.00 0.00 0.00 72 1011.5
20260905072704 79 97 0.0 0.0 0.00 0.00 0.00 72 1011.4
20260905071703 79 93 0.0 0.0 0.00 0.00 0.00 72 1011.5
20260905071203 80 93 0.0 0.0 0.00 0.00 0.00 71 1011.5
20260905070704 79 93 0.0 0.0 0.00 0.00 0.00 72 1011.5
20260905070204 79 93 0.0 0.0 0.00 0.00 0.00 72 1011.7
20260905065704 79 139 0.0 0.0 0.00 0.00 0.00 72 1011.7
20260905065204 79 139 0.0 0.0 0.00 0.00 0.00 72 1011.7
20260905064204 80 139 0.0 0.0 0.00 0.00 0.00 72 1011.8
20260905063704 80 139 0.0 0.0 0.00 0.00 0.00 70 1011.8
20260905063204 81 139 0.0 0.0 0.00 0.00 0.00 70 1011.9
20260905062704 81 139 0.0 0.0 0.00 0.00 0.00 69 1011.8
20260905062204 81 140 0.0 0.0 0.00 0.00 0.00 69 1011.8
20260905061204 81 139 0.0 0.0 0.00 0.00 0.00 70 1011.8
20260905060203 80 204 0.0 0.0 0.00 0.00 0.00 71 1011.8
20260905055704 80 209 0.0 0.0 0.00 0.00 0.00 70 1011.9
20260905055204 80 209 0.0 0.0 0.00 0.00 0.00 70 1011.8
20260905054703 81 209 0.0 0.0 0.00 0.00 0.00 70 1011.7
20260905054204 81 209 0.0 0.0 0.00 0.00 0.00 69 1011.9
20260905053703 81 209 0.0 0.0 0.00 0.00 0.00 69 1011.9
20260905052703 81 209 0.0 0.0 0.00 0.00 0.00 68 1011.8
20260905052204 82 215 0.0 0.0 0.00 0.00 0.00 68 1011.8
20260905051703 81 216 0.0 0.0 0.00 0.00 0.00 68 1011.8
20260905051204 82 124 0.0 0.0 0.00 0.00 0.00 68 1011.7
20260905050204 81 124 0.0 0.0 0.00 0.00 0.00 68 1011.7
20260905045705 82 124 0.0 0.0 0.00 0.00 0.00 68 1011.7
20260905045203 82 124 0.0 0.0 0.00 0.00 0.00 67 1011.7
20260905044704 82 124 0.0 0.0 0.00 0.00 0.00 68 1011.8
20260905044203 82 124 0.0 0.0 0.00 0.00 0.00 67 1011.7
20260905043204 82 124 0.0 0.0 0.00 0.00 0.00 67 1011.7
20260905042704 83 124 0.0 0.0 0.00 0.00 0.00 66 1011.6
20260905042203 83 124 0.0 0.0 0.00 0.00 0.00 66 1011.7
20260905041704 83 124 0.0 0.0 0.00 0.00 0.00 65 1011.7
20260905041203 83 124 0.0 0.0 0.00 0.00 0.00 65 1011.6
20260905040703 84 124 0.0 0.0 0.00 0.00 0.00 64 1011.6
20260905040204 84 124 0.0 0.0 0.00 0.00 0.00 64 1011.6
20260905035204 85 124 0.0 0.0 0.00 0.00 0.00 63 1011.7
20260905034704 85 124 0.0 0.0 0.00 0.00 0.00 62 1011.7
20260905033204 85 124 0.0 0.0 0.00 0.00 0.00 61 1011.7
20260905032704 86 124 0.0 0.0 0.00 0.00 0.00 61 1011.6
20260905032204 86 124 0.0 0.0 0.00 0.00 0.00 61 1011.5
20260905031703 86 124 0.0 1.0 0.00 0.00 0.00 60 1011.5
20260905031204 86 119 0.0 1.0 0.00 0.00 0.00 60 1011.5
20260905030704 86 111 0.0 1.0 0.00 0.00 0.00 60 1011.5
20260905030204 86 117 0.0 1.0 0.00 0.00 0.00 59 1011.5
20260905025204 86 182 0.0 0.0 0.00 0.00 0.00 60 1011.3
20260905024704 86 148 0.0 1.0 0.00 0.00 0.00 60 1011.3
20260905024204 86 193 0.0 1.0 0.00 0.00 0.00 60 1011.2
20260905023704 85 148 0.0 0.0 0.00 0.00 0.00 60 1011.1
20260905023204 86 148 0.0 0.0 0.00 0.00 0.00 60 1011.0
20260905022704 86 148 0.0 0.0 0.00 0.00 0.00 60 1011.0
20260905022203 85 159 0.0 0.0 0.00 0.00 0.00 60 1010.9
20260905021704 86 159 0.0 0.0 0.00 0.00 0.00 60 1010.8
20260905021203 86 159 0.0 0.0 0.00 0.00 0.00 60 1010.7
20260905020704 86 159 0.0 0.0 0.00 0.00 0.00 59 1010.7
20260905020204 86 159 0.0 0.0 0.00 0.00 0.00 59 1010.7
20260905015204 86 159 0.0 0.0 0.00 0.00 0.00 58 1010.5
20260905014703 87 159 0.0 0.0 0.00 0.00 0.00 58 1010.5
20260905013704 87 159 0.0 0.0 0.00 0.00 0.00 58 1010.4
20260905013204 87 159 0.0 0.0 0.00 0.00 0.00 57 1010.3
20260905012704 87 159 0.0 0.0 0.00 0.00 0.00 57 1010.3
20260905012203 88 159 0.0 0.0 0.00 0.00 0.00 56 1010.3
20260905011204 88 159 0.0 0.0 0.00 0.00 0.00 56 1010.0
20260905010204 89 159 0.0 0.0 0.00 0.00 0.00 55 1010.0
20260905005704 90 159 0.0 0.0 0.00 0.00 0.00 54 1009.9
20260905005203 90 159 0.0 0.0 0.00 0.00 0.00 53 1009.9
20260905004704 91 159 0.0 0.0 0.00 0.00 0.00 52 1009.9
20260905004204 91 159 0.0 0.0 0.00 0.00 0.00 51 1009.8
20260905003704 92 159 0.0 0.0 0.00 0.00 0.00 50 1009.8
20260905003204 93 159 0.0 0.0 0.00 0.00 0.00 49 1009.7
20260905002704 94 159 0.0 0.0 0.00 0.00 0.00 48 1009.7
20260905002203 94 159 0.0 0.0 0.00 0.00 0.00 47 1009.7
20260905001704 96 159 0.0 0.0 0.00 0.00 0.00 46 1009.6
20260905001204 96 134 0.0 0.0 0.00 0.00 0.00 45 1009.7
20260905000704 97 134 0.0 0.0 0.00 0.00 0.00 44 1009.7
20260905000204 98 134 0.0 0.0 0.00 0.00 0.00 44 1009.6
20260904235703 98 134 0.0 1.0 0.00 0.00 0.00 43 1009.6
20260904235204 99 204 0.0 2.0 0.00 0.00 0.00 42 1009.6
20260904234704 99 143 0.0 1.0 0.00 0.00 0.00 42 1009.6
20260904234203 99 49 0.0 1.0 0.00 0.00 0.00 42 1009.7
20260904233704 100 87 1.0 3.0 0.00 0.00 0.00 41 1009.6
20260904232703 99 214 1.0 1.0 0.00 0.00 0.00 42 1009.6
20260904231704 100 135 0.0 5.0 0.00 0.00 0.00 42 1009.6
20260904230704 99 97 0.0 3.0 0.00 0.00 0.00 42 1009.8
20260904230204 100 150 1.0 5.0 0.00 0.00 0.00 41 1009.7
20260904225703 99 186 1.0 3.0 0.00 0.00 0.00 42 1009.8
20260904225204 98 118 0.0 6.0 0.00 0.00 0.00 42 1009.8
20260904224704 98 176 2.0 6.0 0.00 0.00 0.00 43 1009.8
20260904224204 97 92 1.0 3.0 0.00 0.00 0.00 44 1009.9
20260904223704 97 135 0.0 1.0 0.00 0.00 0.00 43 1009.8
20260904223204 98 154 1.0 3.0 0.00 0.00 0.00 43 1009.8
20260904222704 98 187 1.0 3.0 0.00 0.00 0.00 43 1009.7
20260904222204 98 109 0.0 2.0 0.00 0.00 0.00 43 1009.8
20260904221704 99 180 1.0 3.0 0.00 0.00 0.00 42 1009.9
20260904221205 99 176 1.0 3.0 0.00 0.00 0.00 42 1009.9
20260904220204 101 127 1.0 5.0 0.00 0.00 0.00 41 1009.9
20260904215703 100 142 1.0 3.0 0.00 0.00 0.00 41 1009.9
20260904215204 100 303 0.0 3.0 0.00 0.00 0.00 41 1009.9
20260904214704 100 80 2.0 6.0 0.00 0.00 0.00 41 1010.0
20260904214203 100 122 3.0 6.0 0.00 0.00 0.00 41 1010.0
20260904213704 99 28 0.0 3.0 0.00 0.00 0.00 42 1010.0
20260904213203 99 170 4.0 12.0 0.00 0.00 0.00 41 1010.1
20260904212204 100 84 1.0 3.0 0.00 0.00 0.00 42 1010.0
20260904211704 99 167 0.0 3.0 0.00 0.00 0.00 43 1010.1
20260904211204 99 358 2.0 6.0 0.00 0.00 0.00 42 1010.2
20260904210704 99 126 1.0 6.0 0.00 0.00 0.00 43 1010.2
20260904210203 98 267 1.0 2.0 0.00 0.00 0.00 44 1010.3
20260904205704 97 222 0.0 0.0 0.00 0.00 0.00 44 1010.4
20260904204704 98 193 3.0 9.0 0.00 0.00 0.00 43 1010.5
20260904204204 98 152 4.0 10.0 0.00 0.00 0.00 43 1010.6
20260904203704 97 67 0.0 3.0 0.00 0.00 0.00 44 1010.5
20260904203204 98 51 1.0 3.0 0.00 0.00 0.00 43 1010.6
20260904202204 99 117 2.0 10.0 0.00 0.00 0.00 43 1010.5
20260904201703 98 92 1.0 6.0 0.00 0.00 0.00 44 1010.7
20260904201204 98 124 2.0 8.0 0.00 0.00 0.00 44 1010.9
20260904195704 99 41 2.0 8.0 0.00 0.00 0.00 44 1011.0
20260904195204 99 185 2.0 6.0 0.00 0.00 0.00 44 1011.1
20260904194704 98 161 1.0 8.0 0.00 0.00 0.00 45 1011.2
20260904194203 98 101 1.0 9.0 0.00 0.00 0.00 46 1011.1
20260904193703 97 216 1.0 5.0 0.00 0.00 0.00 45 1011.1
20260904192704 97 43 3.0 7.0 0.00 0.00 0.00 46 1011.2
20260904192204 97 142 1.0 2.0 0.00 0.00 0.00 46 1011.4
20260904191704 96 58 2.0 3.0 0.00 0.00 0.00 46 1011.4
20260904191203 97 76 1.0 2.0 0.00 0.00 0.00 45 1011.4
20260904190204 97 161 1.0 5.0 0.00 0.00 0.00 45 1011.6
20260904185704 98 209 6.0 9.0 0.00 0.00 0.00 45 1011.7
20260904185204 98 232 3.0 6.0 0.00 0.00 0.00 44 1011.7
20260904184703 97 80 1.0 3.0 0.00 0.00 0.00 48 1011.8
20260904184203 97 185 0.0 2.0 0.00 0.00 0.00 47 1011.9
20260904183704 97 164 1.0 3.0 0.00 0.00 0.00 46 1011.9
20260904183204 97 170 4.0 8.0 0.00 0.00 0.00 46 1011.9
20260904182204 97 274 2.0 8.0 0.00 0.00 0.00 45 1012.1
20260904181703 97 162 6.0 13.0 0.00 0.00 0.00 45 1012.1
20260904181204 97 211 4.0 8.0 0.00 0.00 0.00 46 1012.2
20260904180703 96 199 1.0 8.0 0.00 0.00 0.00 48 1012.2
20260904180204 97 67 2.0 5.0 0.00 0.00 0.00 47 1012.3
20260904175704 97 80 3.0 5.0 0.00 0.00 0.00 47 1012.4
20260904175204 96 111 2.0 12.0 0.00 0.00 0.00 48 1012.5
20260904174704 97 196 5.0 12.0 0.00 0.00 0.00 47 1012.5
20260904174204 96 91 1.0 7.0 0.00 0.00 0.00 48 1012.6
20260904173704 97 251 4.0 7.0 0.00 0.00 0.00 46 1012.7
20260904171704 96 224 2.0 6.0 0.00 0.00 0.00 50 1012.9
20260904171204 95 100 2.0 5.0 0.00 0.00 0.00 49 1013.0
20260904170704 95 125 3.0 8.0 0.00 0.00 0.00 49 1013.1
20260904165203 95 173 1.0 6.0 0.00 0.00 0.00 51 1013.2
20260904164704 94 191 1.0 6.0 0.00 0.00 0.00 52 1013.3
20260904163204 93 249 2.0 6.0 0.00 0.00 0.00 52 1013.2
20260904162704 93 230 2.0 8.0 0.00 0.00 0.00 52 1013.3
20260904162204 93 173 4.0 9.0 0.00 0.00 0.00 52 1013.4
20260904161704 93 185 4.0 7.0 0.00 0.00 0.00 53 1013.4
20260904161204 93 190 2.0 7.0 0.00 0.00 0.00 55 1013.3
20260904160703 93 240 4.0 9.0 0.00 0.00 0.00 55 1013.3
20260904160203 92 209 2.0 5.0 0.00 0.00 0.00 57 1013.3
20260904155704 92 234 2.0 3.0 0.00 0.00 0.00 57 1013.3
20260904155204 91 242 1.0 3.0 0.00 0.00 0.00 59 1013.3
20260904154704 91 250 3.0 8.0 0.00 0.00 0.00 58 1013.4
20260904154204 90 239 2.0 7.0 0.00 0.00 0.00 59 1013.5
20260904153703 90 193 5.0 9.0 0.00 0.00 0.00 60 1013.4
20260904153204 90 207 2.0 3.0 0.00 0.00 0.00 61 1013.4
20260904152704 89 274 2.0 8.0 0.00 0.00 0.00 62 1013.5
20260904152203 89 178 4.0 9.0 0.00 0.00 0.00 62 1013.6
20260904151704 89 246 3.0 5.0 0.00 0.00 0.00 63 1013.5
20260904150204 88 202 3.0 7.0 0.00 0.00 0.00 65 1013.5
20260904145203 88 245 2.0 6.0 0.00 0.00 0.00 65 1013.3
20260904144204 87 169 0.0 3.0 0.00 0.00 0.00 68 1013.5
20260904143703 87 186 0.0 1.0 0.00 0.00 0.00 69 1013.5
20260904142704 86 197 0.0 3.0 0.00 0.00 0.00 70 1013.4
20260904142204 86 182 1.0 3.0 0.00 0.00 0.00 70 1013.5
20260904141703 86 196 1.0 3.0 0.00 0.00 0.00 69 1013.5
20260904141203 86 211 0.0 0.0 0.00 0.00 0.00 70 1013.5